Location: Most
(50.5133°N, 13.6207°E)
Time: 02:27:35
(UTC+01:00)

ZACube-1 - Pass Details

Date: 12 December 2021
Orbit: 582 x 665 km, 97.6° (Epoch: 24 January)

Event Time Altitude Azimuth Distance (km) Brightness Sun altitude
Rises 04:46:02 0° 12° (NNE) 3,016 ? -29.1°
Reaches altitude 10° 04:48:17 10° 11° (N) 2,100 ? -28.7°
Enters shadow 04:48:20 10° 11° (N) 2,080 ? -28.7°
